Grizzly Air Cargo 5375


PASD
Sand Point Airport
Sand Point, Alaska, US
PACD
Cold Bay Airport
Cold Bay, Alaska, US

Activity Log

Date Flight Route Aircraft Duration
No Flights Yet

Route Details

Aircraft Information
Primary: Saab 340AF
Backup: Not Available
Route Data
Distance: 92nm
Sched. Duration: 0h 50m
Avg. Duration: 0h 00m (-50m)
Times Flown: 0
Recm'd Route: HBT2 HBT G12 ELF
Planned Altitude: 12,000ft
Origin Wx: PASD 251956Z 31020G29KT 10SM -RA FEW017 SCT034 BKN055 02/00 A2975 RMK AO2 PK WND 31029/1948 SLP076 PRESRR T00220000 PNO $
Dest. Wx: PACD 252001Z 30025KT 10SM FEW021 BKN045 OVC100 02/00 A2990 RMK AO2 PK WND 30029/1959 RAE1959 P0000 T00170000
Notes:

Financial History
Total Freight: 0lbs
Average Load: 0lbs/flt
Fuel Used: 0lbs
Avg. Fuel Used: 0lbs/flt
Fuel Expense: $0
Avg. Fuel Expense: $0
Avg. Fuel Cost: $0/lbs
Total Gross Income: $0
Pilot Pay: $0
Total Expenses: $0
Total Revenue: $0
Average Revenue: $0